Regional Weather Roundup
Issued by NWS

Home | Current Version | Previous Version | Text Only | Print | Product List | Glossary Off
Versions: 1 2 3 4 5 6 7 8 9 10 11 12 13 14 15 16 17 18 19 20 21 22 23 24 25 26 27 28 29 30 31 32 33 34 35 36 37 38 39 40 41 42 43 44 45 46 47 48 49 50

000
ASUS43 KDTX 300110
RWRMI
MICHIGAN HOURLY REGIONAL WEATHER ROUNDUP
NATIONAL WEATHER SERVICE DETROIT/PONTIAC MI
900 PM EDT WED MAR 29 2017

NOTE: "FAIR" INDICATES FEW OR NO CLOUDS BELOW 12,000 FEET WITH NO
SIGNIFICANT WEATHER AND/OR OBSTRUCTION TO VISIBILITY.

MIZ047>049-052>055-059>063-066>070-074>076-081>083-300200-
SOUTHEAST LOWER MICHIGAN

CITY           SKY/WX    TMP DP  RH WIND       PRES   REMARKS
ADRIAN         CLOUDY    46  31  55 SE14G20   30.15F
ALMA           MOCLDY    37  30  75 NE12      30.24R WCI  30
ANN ARBOR      CLOUDY    46  29  51 E12       30.16F
BAD AXE        MOCLDY    34  26  72 NE5       30.27F WCI  30
CARO           CLOUDY    37  30  74 NE8G16    30.21F WCI  31
DETROIT CITY   CLOUDY    42  32  67 NE10G21   30.21F
DETROIT        CLOUDY    46  31  55 E14G22    30.18F
FLINT          CLOUDY    42  32  67 E15       30.20F
GROSSE ILE     CLOUDY    44  35  72 E13       30.17F
HILLSDALE      CLOUDY    45  32  61 E8        30.13S
HOWELL         CLOUDY    45  33  64 E14G20    30.17F

CITY           SKY/WX    TMP DP  RH WIND       PRES   REMARKS
JACKSON        CLOUDY    49  33  54 SE14      30.12F
LAMBERTVILLE   MOCLDY    47  32  55 E8        30.16F
LANSING        CLOUDY    42  34  73 NE14      30.17F
LAPEER         FAIR      40  32  74 NE7       30.21F WCI  35
MASON          CLOUDY    44  38  78 NE8       30.15S
MONROE         CLOUDY    45  32  60 E8G16     30.17F
MT. CLEMENS    CLOUDY    41  32  69 NE7       30.22F
PONTIAC        CLOUDY    43  32  65 NE15      30.16F
PORT HOPE        N/A     35  30  82 NE14      30.26F WCI  26
PORT HURON     CLOUDY    36  28  75 NE6G16    30.25F WCI  31
TRI CITIES     CLOUDY    36  31  82 NE12      30.23F WCI  28
MIDLAND        FAIR      35  29  78 NE14G20   30.23F WCI  26
TROY           CLOUDY    44  29  55 NE18      30.20F
SAGINAW HB     CLOUDY    36  30  80 NE13      30.23F WCI  27
$$
MIZ043>046-050>051-056>058-064>065-071>073-077>080-300200-
SOUTHWEST LOWER MICHIGAN

CITY           SKY/WX    TMP DP  RH WIND       PRES   REMARKS
BATTLE CREEK   CLOUDY    49  34  56 E14       30.12S
BENTON HARBOR  CLOUDY    51  35  54 E6        30.12R
BIG RAPIDS     CLOUDY    40  27  60 E16       30.20R WCI  32
COLDWATER      CLOUDY    49  33  54 SE10G17   30.13R
FREMONT        CLOUDY    44  30  57 E12G21    30.18R
HOLLAND        CLOUDY    49  35  58 E10       30.13R
GRAND RAPIDS   CLOUDY    44  34  67 NE18      30.15S
IONIA          MOCLDY    41  31  69 NE16G24   30.15F
KALAMAZOO      CLOUDY    51  33  50 E9        30.13S
LUDINGTON      CLOUDY    45  33  63 N3        30.19R
MARSHALL       LGT RAIN  47  36  65 E8        30.12S
MOUNT PLEASANT PTCLDY    37  27  66 NE7       30.23S WCI  32
MUSKEGON       CLOUDY    48  33  56 E14       30.16R
SOUTH HAVEN    CLOUDY    51  33  51 E6        30.12R
$$
MIZ016>042-300200-
NORTHERN LOWER MICHIGAN

CITY           SKY/WX    TMP DP  RH WIND       PRES   REMARKS
ALPENA         CLOUDY    34  25  69 E3        30.32F
BEAVER ISLAND  CLOUDY    35  25  67 E10G16    30.27F WCI  28
BELLAIRE       CLOUDY    42  29  58 NE12      30.25S
CADILLAC       CLOUDY    40  31  69 E15       30.19S WCI  32
CHARLEVOIX     MOCLDY    39  27  62 E9        30.29F WCI  33
FRANKFORT      CLOUDY    41  30  66 E5        30.20S
GAYLORD        CLOUDY    37  24  59 E5        30.25S WCI  33
GRAYLING       MOCLDY    37  27  65 NE12      30.26R WCI  30
HARBOR SPRINGS CLOUDY    37  25  62 E13G18    30.28F WCI  28
HOUGHTON LAKE  CLOUDY    37  28  70 E12       30.24S WCI  29
MANISTEE       CLOUDY    43  31  62 NE9       30.20R
OSCODA         CLOUDY    36  24  62 NE13      30.29F WCI  27
PELLSTON       CLOUDY    37  23  56 E9        30.30F WCI  30
ROGERS CITY    CLOUDY    37  25  61 SE3       30.32F
TRAVERSE CITY  CLOUDY    39  33  79 CALM      30.21S
$$
MIZ007>008-015-300200-
EASTERN UPPER MICHIGAN

CITY           SKY/WX    TMP DP  RH WIND       PRES   REMARKS
KINROSS        CLOUDY    35  21  56 CALM      30.32F
MACKINAC ISLAN CLOUDY    35  23  62 E8        30.30F WCI  28
NEWBERRY       CLOUDY    34  25  69 E3        30.30F
S. S. MARIE    PTCLDY    36  25  64 CALM      30.32S
MUNISING         N/A     32  29  88 CALM      30.28F
$$
MIZ004>006-011>014-085-300200-
CENTRAL UPPER MICHIGAN

CITY           SKY/WX    TMP DP  RH WIND       PRES   REMARKS
MANISTIQUE     CLOUDY    35  20  54 NE8       30.27F WCI  29
ESCANABA       CLOUDY    38  24  57 E7        30.27F WCI  33
MENOMINEE      CLOUDY    36  26  67 NE10      30.25S WCI  28
SAWYER-GWINN   CLEAR     30  27  86 NE8       30.26F WCI  23
$$
MIZ001>003-009>011-084-300200-
WESTERN UPPER MICHIGAN

CITY           SKY/WX    TMP DP  RH WIND       PRES   REMARKS
IRON MOUNTAIN  CLOUDY    40  26  57 E9        30.23R WCI  34
HOUGHTON       CLOUDY    31  26  82 E12       30.25F WCI  22
COPPER HARBOR    N/A     33  26  75 S3        30.28F
IRONWOOD       PTCLDY    42  30  62 SE3       30.19F
$$

ABBREVIATIONS USED IN REMARKS
   TC - TEMPERATURE IN CELSIUS
  WCI - WIND CHILL INDEX
   HX - HEAT INDEX
  VSB - VISIBILITY





USA.gov is the U.S. government's official web portal to all federal, state and local government web resources and services.